Theta_e
309 309 308 312 312 309 307 297 287 302 308 293 294 290 292 297 296 293 291 293 291 289 288 286 286 286 288 292 294 291 292 289 284 286 290 292 291 290 290 285 280 283 282 283
309 309 309 310 309 310 299 288 286 296 301 285 285 291 292 294 290 290 291 291 294 290 288 285 287 287 291 293 292 291 292 285 280 280 285 288 286 287 287 284 283 281 278 281
309 309 309 310 308 308 296 289 283 286 289 290 290 289 289 287 292 291 292 290 291 288 286 288 285 285 289 292 293 294 294 286 284 280 281 285 282 284 287 284 279 279 280 282
309 310 309 308 309 306 297 290 284 289 285 284 290 292 289 288 286 290 291 286 288 287 283 285 283 286 287 288 290 290 289 283 284 284 285 285 284 283 284 282 283 279 281 281
307 308 309 307 308 305 294 286 285 288 291 289 289 290 286 287 286 288 287 286 288 287 284 286 283 285 286 286 287 287 288 281 283 280 284 283 280 282 282 282 282 281 282 281
307 308 308 307 306 302 292 293 295 292 290 287 286 286 287 288 288 288 290 288 286 285 287 289 291 290 290 289 285 283 284 282 279 275 279 278 275 278 280 281 283 282 277 282
307 307 307 303 301 299 295 295 293 288 282 286 287 288 288 288 289 286 289 290 287 289 290 288 287 285 285 286 284 286 283 282 280 275 276 268 278 282 282 280 281 283 282 284
303 302 302 301 301 302 297 294 292 288 283 286 286 286 286 287 288 287 288 288 291 290 287 282 278 278 278 279 281 282 284 281 275 272 272 275 277 280 280 278 278 283 282 282
302 302 302 301 300 299 295 291 294 292 285 284 288 286 287 284 282 283 283 287 290 288 283 281 274 271 275 274 277 281 282 282 277 273 269 267 276 282 284 283 274 282 282 282
302 301 302 302 301 299 294 291 292 291 284 287 290 285 286 287 285 281 284 285 285 287 281 277 275 273 278 272 273 275 275 275 273 273 271 274 281 282 284 272 275 283 283 283
302 302 301 301 300 299 294 290 291 291 285 286 288 288 284 285 285 281 284 283 284 282 278 277 276 276 277 276 277 276 275 273 271 270 268 268 281 281 276 281 284 284 284 285
301 301 301 301 300 298 295 288 290 292 287 286 290 289 289 290 290 286 284 284 284 284 280 279 279 277 278 277 272 279 275 278 276 276 275 281 284 283 285 285 284 285 286 287
300 300 300 299 298 298 295 288 288 289 286 286 286 285 290 292 290 292 284 284 285 283 285 282 280 277 279 274 275 277 279 281 278 277 279 281 283 284 285 286 286 288 288 286
299 299 299 299 298 296 293 287 288 287 285 281 283 290 287 291 292 290 290 286 286 285 284 281 280 279 281 277 278 278 280 280 278 278 281 282 283 284 286 288 288 288 286 285
299 299 298 297 296 295 293 291 290 288 286 280 281 285 287 290 291 289 289 288 286 284 282 280 279 280 280 279 279 277 280 279 277 276 282 281 282 286 289 287 285 285 283 283
298 298 298 297 296 292 288 284 290 291 287 282 277 283 284 288 289 288 287 287 285 282 282 280 280 282 281 277 275 280 281 282 284 281 284 285 288 288 288 284 284 284 283 284
298 298 297 297 296 292 286 284 288 292 286 280 276 279 283 286 285 284 286 285 284 284 280 281 281 282 281 278 275 280 282 283 284 285 285 285 286 283 285 284 284 284 284 284
297 297 296 296 295 292 287 290 291 289 283 282 274 277 281 285 281 281 283 281 282 281 280 280 281 281 281 276 280 282 283 283 284 286 289 287 286 284 283 284 283 282 282 283
295 294 294 290 287 284 287 294 289 287 284 276 275 275 275 283 280 281 281 281 279 281 280 280 281 279 275 280 282 283 284 285 286 287 286 284 282 282 282 283 283 281 282 282
294 288 283 280 286 294 289 283 280 279 280 280 277 278 278 281 279 279 280 281 279 276 280 282 279 278 283 284 285 286 285 287 287 282 282 281 281 282 282 282 283 282 282 282
285 281 282 286 290 284 279 274 274 277 276 280 279 279 278 282 279 279 281 277 279 273 278 278 277 276 281 285 285 286 288 288 286 286 284 283 283 281 281 282 282 282 282 281
287 285 286 284 280 276 271 268 275 277 276 279 279 279 279 282 284 279 280 277 278 273 281 277 274 280 284 285 284 286 287 286 285 286 284 283 283 283 282 281 281 282 282 280
286 283 278 278 274 267 267 264 272 274 278 280 280 278 281 284 284 279 279 276 274 282 276 275 278 282 285 285 285 284 285 285 285 284 284 283 283 284 282 282 283 282 280 279
279 273 267 269 266 272 274 277 276 278 279 281 279 277 280 282 279 280 274 278 279 274 272 273 280 283 285 285 285 284 284 285 283 284 283 283 283 283 281 278 278 275 277 277
279 277 267 269 275 277 277 278 280 282 283 282 279 279 281 279 278 279 277 273 271 273 273 277 282 285 285 284 284 284 284 282 282 283 280 280 279 278 279 278 278 278 275 274
280 279 274 275 275 272 274 277 279 283 283 282 281 277 276 275 276 274 273 272 270 275 277 282 284 285 286 286 286 285 285 283 283 282 281 279 276 276 279 277 276 275 275 275
278 275 278 277 274 274 275 278 281 283 281 277 278 273 274 277 275 274 277 274 278 279 281 283 284 285 285 285 285 283 282 282 282 282 279 279 279 278 275 275 280 277 278 275
Wind_Speed
23 21 22 20 33 40 18 6 5 4 14 10 5 12 9 7 14 3 2 3 6 6 4 4 4 6 2 2 3 7 1 4 5 2 3 5 2 4 5 5 5 3 3 13
24 22 20 17 39 38 9 6 4 2 6 12 9 5 5 5 9 10 10 7 5 0 4 4 2 4 1 3 3 7 7 2 4 1 2 2 2 2 4 5 2 8 7 10
24 21 17 19 42 31 10 6 7 2 2 1 13 12 8 7 6 5 6 6 7 8 7 3 9 6 3 3 4 9 4 4 3 6 3 4 6 6 7 4 2 8 13 23
20 19 20 34 42 29 8 2 5 6 15 8 10 16 12 11 8 2 7 3 5 11 6 5 4 3 4 5 4 5 2 3 3 4 5 4 5 6 7 8 9 10 21 21
21 23 24 32 33 22 5 7 8 4 11 13 12 16 12 17 7 10 9 4 12 8 6 3 10 8 5 4 3 3 1 4 3 1 4 5 9 8 8 10 14 18 20 21
18 17 25 34 23 7 5 2 2 8 15 13 13 10 11 13 16 2 9 13 9 7 7 6 5 4 5 6 7 4 4 6 4 3 4 3 10 10 9 6 5 10 12 15
21 24 25 24 14 6 4 2 5 6 6 12 16 16 7 16 12 10 13 13 8 5 15 12 9 10 10 7 6 3 6 6 3 4 2 5 4 0 4 9 10 12 13 13
27 27 26 23 18 16 9 3 3 4 6 8 10 17 12 14 13 9 10 5 6 15 7 5 5 3 3 5 7 2 1 4 4 4 5 8 4 5 3 6 15 10 9 6
30 29 30 27 22 20 9 2 1 6 8 4 13 12 18 12 7 5 6 4 12 4 4 3 5 6 5 6 4 6 5 4 3 3 4 6 2 3 6 6 9 6 8 13
30 28 26 22 19 15 6 4 5 4 6 3 13 6 11 10 7 7 8 10 4 4 3 3 3 4 3 9 10 6 5 3 5 4 4 6 8 2 3 3 3 12 12 14
26 22 22 21 21 16 6 3 1 5 5 5 4 5 5 5 4 8 10 7 1 2 4 4 4 4 5 4 7 7 7 7 4 3 4 9 5 3 3 7 8 11 13 15
22 21 20 19 16 13 6 4 2 2 9 6 4 10 4 1 6 12 1 2 5 4 5 2 4 3 3 6 5 2 5 6 6 9 6 2 4 2 6 6 8 10 14 14
25 23 22 22 20 16 13 6 2 7 8 8 7 6 7 11 6 1 7 1 4 3 2 4 3 4 3 5 4 4 4 4 3 3 3 9 8 6 6 4 10 11 11 15
28 27 26 26 26 24 15 7 2 6 5 7 3 3 6 7 8 10 6 10 7 6 3 4 3 3 3 4 2 5 2 8 6 5 8 8 7 4 6 8 10 10 14 15
22 22 21 21 23 23 16 9 7 3 7 6 4 0 8 6 10 14 12 11 7 3 3 3 2 2 4 2 2 4 5 7 7 7 8 4 6 3 7 7 9 12 14 17
24 23 19 14 9 5 5 7 5 9 4 7 5 1 6 7 12 14 12 7 5 4 3 2 2 1 3 3 4 5 10 8 10 5 5 5 6 7 2 7 10 11 13 13
22 23 27 29 27 13 8 3 3 7 3 6 4 3 4 3 4 4 4 5 3 3 2 2 3 3 5 3 5 5 11 11 8 7 3 5 6 3 4 5 8 10 11 12
19 19 20 18 16 11 7 7 11 3 7 5 5 2 2 3 2 3 2 2 2 3 3 2 3 3 3 6 7 8 9 7 8 7 9 4 2 1 4 5 7 8 10 13
13 12 12 7 9 6 2 12 6 4 5 5 3 5 4 2 2 2 2 0 2 1 2 3 4 4 7 9 12 9 9 8 6 9 6 3 1 4 5 5 7 8 11 13
9 8 7 5 3 10 7 7 6 7 5 4 4 0 4 2 1 2 2 1 2 2 1 3 3 6 11 9 11 9 9 11 9 5 4 4 5 5 4 6 6 7 9 11
5 4 3 2 7 4 5 5 5 3 4 3 2 2 4 2 3 3 0 2 2 1 1 3 2 4 4 5 13 10 8 10 10 7 4 5 5 4 4 6 5 6 8 9
3 5 4 3 5 4 7 2 2 3 3 2 2 2 2 2 2 3 2 2 1 3 5 2 3 4 4 3 6 9 10 10 9 7 7 7 7 6 6 6 6 5 6 6
3 5 5 4 4 8 5 1 1 2 2 3 3 3 2 2 1 2 2 3 3 3 3 4 5 2 4 6 6 7 7 8 7 7 7 8 8 7 7 7 5 5 5 4
4 4 5 3 3 1 1 2 3 2 3 4 3 3 2 2 2 2 3 2 2 3 4 6 3 6 6 7 6 6 9 10 8 10 9 10 9 8 6 6 4 4 5 4
4 3 2 1 0 1 1 0 1 2 3 3 3 3 1 2 2 2 2 2 4 5 5 3 2 5 5 6 5 7 7 7 9 9 8 9 8 6 6 6 5 5 5 5
3 3 3 1 2 2 1 1 0 2 3 2 2 3 3 2 2 3 6 4 5 3 3 2 2 2 2 4 5 6 7 7 9 8 9 8 7 7 7 3 5 6 6 7
2 1 1 2 2 3 3 3 2 2 2 2 2 3 5 2 2 4 4 5 2 2 2 2 2 2 2 4 5 6 6 7 8 8 7 9 6 4 4 8 8 5 6 5
Wind_Direction
197 191 206 205 169 152 141 115 121 162 159 168 191 204 174 160 179 147 100 130 130 161 158 136 130 153 130 337 187 143 133 118 153 153 38 6 72 161 163 195 204 253 296 271
191 191 195 202 164 157 112 109 110 14 217 174 184 154 143 167 158 175 154 164 147 181 143 139 180 130 22 19 110 150 173 116 124 81 26 18 158 135 107 95 112 219 240 258
184 187 194 207 169 153 97 131 114 357 342 72 168 165 169 137 5 124 106 119 106 142 165 158 168 145 32 5 86 54 81 147 198 236 126 139 175 171 167 152 208 288 252 283
180 180 174 177 171 157 106 171 148 175 180 192 187 168 151 165 166 163 133 93 210 158 141 152 155 104 121 43 25 48 113 205 163 118 133 182 216 220 209 210 230 233 279 268
187 179 177 182 177 142 104 121 147 172 173 145 163 172 184 172 147 157 177 165 170 166 142 193 173 138 167 154 79 85 100 143 105 162 210 246 266 244 224 233 245 258 269 281
200 171 174 177 167 130 97 197 96 111 153 154 163 189 162 171 136 81 144 146 130 136 133 92 89 86 155 167 155 137 139 131 113 208 129 325 273 239 204 209 220 262 274 279
173 164 165 139 122 109 130 101 81 104 151 168 184 153 137 145 169 128 139 138 125 130 111 102 80 70 78 75 56 66 136 118 100 145 154 242 88 29 215 235 256 253 261 281
122 119 114 111 111 123 102 94 128 124 112 139 122 136 118 109 106 113 136 144 147 149 118 90 95 44 78 54 36 290 82 123 127 173 206 325 271 188 157 264 287 285 287 322
112 109 102 101 100 98 91 89 3 98 113 201 141 124 141 130 122 106 123 124 135 108 94 107 153 171 153 161 135 53 114 85 128 149 177 239 170 197 153 148 274 79 350 321
100 95 100 105 101 86 91 63 16 118 108 124 133 119 147 141 122 109 137 148 112 58 113 119 136 157 158 165 163 161 124 85 182 170 212 273 258 145 171 222 327 320 335 323
105 112 116 118 120 135 99 158 319 103 87 56 52 99 131 107 140 138 165 126 187 116 112 140 155 148 180 147 150 166 158 153 179 130 193 249 186 161 258 324 315 317 318 314
97 100 104 107 104 103 139 89 18 61 75 106 84 84 39 111 141 127 47 111 128 144 107 122 117 140 160 150 186 132 184 186 178 200 207 202 199 277 285 298 311 306 312 316
81 85 86 82 82 81 105 100 30 70 96 68 52 26 351 31 35 108 117 55 132 92 67 131 116 137 151 160 206 164 213 174 199 173 206 239 249 269 287 273 301 311 307 314
75 76 80 83 81 76 74 71 336 75 99 85 43 316 34 330 49 60 74 116 78 92 67 87 115 129 199 178 124 202 169 159 184 247 265 266 262 233 296 306 308 313 318 312
67 67 71 79 87 90 86 81 51 51 107 124 109 103 10 15 71 80 86 94 93 75 76 76 118 114 144 103 140 209 189 190 198 226 217 224 268 298 307 305 319 321 319 320
69 66 67 68 73 82 56 49 10 21 50 101 78 309 19 42 70 69 65 63 71 74 114 136 156 92 127 165 212 235 210 211 210 221 173 208 274 290 269 324 330 327 324 320
70 69 69 69 72 65 58 100 265 343 46 89 84 60 19 28 60 46 51 38 62 74 94 126 139 170 163 182 228 205 212 217 215 219 196 254 210 235 323 331 331 327 322 321
63 64 64 64 68 78 39 18 16 33 82 67 98 86 81 12 75 86 16 77 40 29 110 125 167 125 213 237 233 223 223 215 214 222 201 195 208 305 322 315 314 330 331 333
41 49 50 51 35 40 334 336 26 40 87 107 95 130 152 22 76 91 102 102 104 51 178 216 162 162 220 225 221 224 202 184 184 168 184 184 209 279 285 302 318 327 335 331
37 37 39 43 14 320 348 8 26 21 359 38 84 171 105 102 93 73 90 10 128 181 209 137 218 248 240 214 213 212 205 196 159 157 218 208 243 249 298 306 309 316 317 319
41 52 63 266 327 39 32 42 51 351 43 26 59 35 116 7 117 128 211 155 148 191 182 203 248 262 252 235 212 194 186 177 191 193 174 187 214 234 274 292 307 318 313 322
111 115 91 40 30 41 73 21 352 39 100 115 112 81 99 100 103 100 156 128 139 237 138 211 251 252 242 182 179 176 171 176 187 191 196 215 219 221 236 257 272 290 305 308
41 49 51 37 333 46 85 73 10 89 159 156 135 99 97 128 90 96 137 164 208 125 191 235 233 236 190 174 154 166 181 189 192 197 212 223 224 221 225 245 260 283 294 301
59 66 35 72 348 61 137 100 135 188 119 121 98 98 116 128 127 120 150 201 182 234 214 233 234 205 197 189 188 184 203 204 204 216 221 227 224 225 222 228 236 247 269 277
82 72 89 103 185 66 37 18 105 123 127 109 96 94 115 133 155 184 133 159 231 220 230 236 225 181 180 196 208 226 232 213 219 222 217 224 219 215 238 238 231 233 254 259
74 85 99 89 67 329 5 145 189 155 116 102 75 111 122 213 183 170 205 187 225 249 223 233 169 157 209 252 252 246 242 222 229 227 221 224 212 215 231 246 232 234 229 246
55 2 66 146 155 187 199 175 188 150 112 139 123 156 203 146 211 215 191 212 228 252 233 202 188 202 251 277 274 270 278 273 260 251 220 223 222 191 217 248 250 227 231 224